This demonstration page uses our WeatherBlox Daily Observations layout. Learn more.

39.29038, -76.61219

Hourly Observations for April 1, 2018

Temp ( °F °C ) Dew Point ( °F °C ) Humidity (%) Winds ( mph kmh ) Pressure ( in mb ) Visibility ( mi km ) Precip ( " mm )
12:54 am 00:54 undefined 49 9.4 27 -2.8 43 43 undefined N/A 30.08 1019 N/A 0 0
1:54 am 01:54 undefined 49 9.4 29 -1.7 46 46 undefined N/A 30.07 1018 N/A 0 0
2:54 am 02:54 undefined 50 10 30 -1.1 46 46 undefined N/A 30.07 1018 N/A 0 0
3:54 am 03:54 undefined 50 10 32 0 50 50 undefined N/A 30.04 1017 N/A 0 0
4:54 am 04:54 undefined 50 10 32 0 50 50 undefined N/A 30.03 1017 N/A 0 0
5:54 am 05:54 undefined 51 10.6 32 0 48 48 undefined N/A 30.03 1017 N/A 0 0
6:54 am 06:54 undefined 51 10.6 34 1.1 52 52 undefined N/A 30.03 1017 N/A 0 0
7:54 am 07:54 undefined 52 11.1 32 0 47 47 undefined N/A 30.03 1017 N/A 0 0
8:54 am 08:54 undefined 53 11.7 32 0 45 45 undefined N/A 30.04 1017 N/A 0 0
9:54 am 09:54 undefined 55 12.8 33 0.6 44 44 undefined N/A 30.04 1017 N/A 0 0
10:54 am 10:54 undefined 57 13.9 33 0.6 41 41 undefined N/A 30.04 1017 N/A 0 0
11:54 am 11:54 undefined 60 15.6 35 1.7 39 39 undefined N/A 30.05 1018 N/A 0 0
12:54 pm 12:54 undefined 63 17.2 39 3.9 41 41 undefined N/A 30.04 1017 N/A 0 0
1:54 pm 13:54 undefined 63 17.2 39 3.9 41 41 undefined N/A 30.02 1017 N/A 0 0
2:54 pm 14:54 undefined 63 17.2 40 4.4 43 43 undefined N/A 30.01 1016 N/A 0 0
3:54 pm 15:54 undefined 64 17.8 43 6.1 46 46 undefined N/A 30.02 1017 N/A 0 0
4:54 pm 16:54 undefined 64 17.8 42 5.6 45 45 undefined N/A 30.02 1017 N/A 0 0
5:54 pm 17:54 undefined 61 16.1 40 4.4 46 46 undefined N/A 30.01 1016 N/A 0 0
6:54 pm 18:54 undefined 60 15.6 38 3.3 44 44 undefined N/A 30.02 1017 N/A 0 0
7:54 pm 19:54 undefined 59 15 37 2.8 44 44 undefined N/A 30.05 1018 N/A 0 0
8:54 pm 20:54 undefined 57 13.9 34 1.1 42 42 undefined N/A 30.06 1018 N/A 0 0
9:54 pm 21:54 undefined 57 13.9 33 0.6 41 41 undefined N/A 30.06 1018 N/A 0 0
10:54 pm 22:54 undefined 56 13.3 32 0 40 40 undefined N/A 30.03 1017 N/A 0 0
11:54 pm 23:54 undefined 55 12.8 32 0 42 42 undefined N/A 30.02 1017 N/A 0 0

Powered by AerisWeather